Weather History for Custer, SD

Change the Weather History Date:

Friday, March 29, 2013

  Actual Average Record
Temperature  
Mean Temperature 43 °F 34 °F  
Max Temperature 58 °F 45 °F 68 °F (1943)
Min Temperature 27 °F 24 °F -12 °F (1944)
Degree Days  
Heating Degree Days 22 31  
Month to date heating degree days 1030 979  
Since 1 July heating degree days 6572 6814  
Cooling Degree Days 0 0  
Month to date cooling degree days 0 0  
Year to date cooling degree days 0 0  
Moisture  
Dew Point 24 °F    
Average Humidity 50    
Maximum Humidity 78    
Minimum Humidity 22    
Precipitation  
Precipitation 0.00 in 0.04 in 0.71 in (1977)
Month to date precipitation 0.71 0.92  
Year to date precipitation 1.64 1.78  
Sea Level Pressure  
Sea Level Pressure 30.03 in    
Wind  
Wind Speed 5 mph (WNW)    
Max Wind Speed 20 mph    
Max Gust Speed 29 mph    
Visibility 10 miles    
Events      
T = Trace of Precipitation, MM = Missing Value Source: NWS Daily Summary

Daily Weather History Graph

Daily Weather History Graph

Search for Another Location

Airport:

Trip Planner

Search our weather history database for the weather conditions in past years. The results will help you decide how hot, cold, wet, or windy it might be!

Date:

Astronomy

Mar. 29, 2013 Rise Set
Actual Time 6:40 AM MDT 7:18 PM MDT
Civil Twilight 6:11 AM MDT 7:47 PM MDT
Nautical Twilight 5:37 AM MDT 8:21 PM MDT
Astronomical Twilight 5:02 AM MDT 8:56 PM MDT
Moon 10:27 PM MDT (3/29) 7:45 AM MDT (3/29)
Length of Visible Light 13h 35m
Length of Day
12h 37m
Waning Gibbous, 93% of the Moon is Illuminated
Mar 29
Waning Gibbous
Apr 2
Last Quarter
Apr 10
New
Apr 18
First Quarter
Apr 25
Full

Hourly Weather History & Observations

Time (MDT) Temp. Windchill Dew Point Humidity Pressure Visibility Wind Dir Wind Speed Gust Speed Precip Events Conditions
12:53 AM 28.9 °F 23.9 °F 23.0 °F 78% 30.11 in 10.0 mi Variable 4.6 mph - N/A   Clear
1:53 AM 28.9 °F 23.9 °F 21.9 °F 75% 30.13 in 10.0 mi WNW 4.6 mph - N/A   Clear
2:53 AM 28.0 °F 24.2 °F 21.9 °F 78% 30.13 in 10.0 mi NW 3.5 mph - N/A   Clear
3:53 AM 30.0 °F 25.2 °F 21.9 °F 72% 30.08 in 10.0 mi WNW 4.6 mph - N/A   Clear
4:53 AM 30.0 °F - 21.9 °F 72% 30.07 in 10.0 mi Calm Calm - N/A   Clear
5:53 AM 30.9 °F 25.2 °F 21.9 °F 69% 30.07 in 10.0 mi NW 5.8 mph - N/A   Clear
6:53 AM 28.9 °F - 21.9 °F 75% 30.09 in 10.0 mi Calm Calm - N/A   Scattered Clouds
7:53 AM 37.9 °F - 28.0 °F 68% 30.06 in 10.0 mi Calm Calm - N/A   Mostly Cloudy
8:53 AM 48.0 °F - 28.0 °F 46% 30.03 in 10.0 mi West 5.8 mph - N/A   Mostly Cloudy
9:53 AM 54.0 °F - 21.0 °F 28% 30.02 in 10.0 mi WSW 5.8 mph - N/A   Clear
10:53 AM 55.0 °F - 21.9 °F 28% 30.02 in 10.0 mi SSW 8.1 mph - N/A   Overcast
11:53 AM 57.0 °F - 21.9 °F 26% 30.00 in 10.0 mi West 9.2 mph 23.0 mph N/A   Partly Cloudy
12:53 PM 57.0 °F - 27.0 °F 32% 29.99 in 10.0 mi West 8.1 mph 17.3 mph N/A   Partly Cloudy
1:53 PM 55.9 °F - 27.0 °F 33% 29.99 in 10.0 mi WNW 8.1 mph 16.1 mph N/A   Clear
2:53 PM 55.9 °F - 28.9 °F 36% 29.98 in 10.0 mi Variable 5.8 mph - N/A   Partly Cloudy
3:53 PM 55.0 °F - 24.1 °F 30% 29.97 in 10.0 mi North 8.1 mph - N/A   Overcast
4:53 PM 57.0 °F - 19.0 °F 23% 29.96 in 10.0 mi WNW 10.4 mph 28.8 mph N/A   Clear
5:53 PM 55.9 °F - 18.0 °F 23% 29.97 in 10.0 mi NNW 6.9 mph 17.3 mph N/A   Clear
6:53 PM 52.0 °F - 18.0 °F 26% 30.01 in 10.0 mi WNW 3.5 mph - N/A   Partly Cloudy
7:53 PM 48.0 °F - 19.0 °F 32% 30.00 in 10.0 mi North 4.6 mph - N/A   Scattered Clouds
8:53 PM 46.0 °F 43.9 °F 27.0 °F 47% 29.99 in 10.0 mi North 4.6 mph - N/A   Mostly Cloudy
9:53 PM 44.1 °F 40.8 °F 28.9 °F 55% 29.97 in 10.0 mi NNW 5.8 mph - N/A   Overcast
10:53 PM 41.0 °F 39.0 °F 28.9 °F 62% 29.99 in 10.0 mi WNW 3.5 mph - N/A   Overcast
11:53 PM 39.0 °F 36.8 °F 28.0 °F 65% 30.00 in 10.0 mi SW 3.5 mph - N/A   Mostly Cloudy